CAPE
432 477 344 293 297 277 384 531 628 607 571 513 491 602 526 399 310 223 121 97 80 44 65 102 142 116 103 135 357 378 824 534
231 218 91 49 137 117 169 252 396 394 282 166 104 146 90 64 0 0 0 0 0 0 0 0 0 0 0 0 0 0 124 103
230 139 51 4 17 131 137 242 422 406 284 108 66 74 13 0 0 0 0 0 0 0 0 0 0 0 0 0 0 0 0 0
280 256 202 13 3 174 176 244 559 706 580 288 122 106 42 3 0 0 0 0 0 0 0 0 0 0 0 0 0 0 0 0
356 416 369 144 6 206 157 117 267 443 557 476 187 114 68 25 0 0 0 0 0 0 0 0 0 0 0 0 0 0 0 0
897 507 481 579 594 452 289 202 168 300 371 309 262 146 15 0 0 0 0 0 0 0 0 0 0 0 0 0 0 0 0 0
1119 825 502 518 348 464 442 349 228 344 392 337 216 107 2 0 0 0 0 0 0 0 0 0 0 0 0 0 0 0 0 0
867 273 69 143 36 46 56 68 178 215 248 286 231 67 8 0 0 0 0 0 0 0 0 0 0 0 0 0 0 0 0 0
398 0 0 0 0 0 0 0 0 0 0 3 13 1 0 0 0 0 0 0 0 0 0 0 0 0 0 0 0 0 0 0
24 0 0 0 0 0 0 0 0 0 0 0 0 0 0 0 0 0 14 22 0 0 0 0 0 0 0 0 0 0 0 0
0 0 0 0 0 0 0 0 0 0 0 0 0 0 0 0 0 0 0 0 0 0 0 0 0 0 0 0 0 0 0 0
0 0 0 0 0 0 0 0 0 0 0 0 0 0 0 0 0 0 0 0 0 0 0 0 0 0 0 0 0 0 0 0
0 0 0 0 0 0 0 0 0 0 0 0 0 0 0 0 0 0 0 0 0 0 0 0 0 0 0 0 0 0 0 0
0 0 0 0 0 0 0 0 0 0 0 0 0 0 0 0 0 0 0 0 0 0 0 0 0 0 0 0 0 0 0 0
0 0 0 0 0 0 0 0 0 0 0 0 0 0 0 0 0 0 0 0 0 0 0 0 0 0 0 0 0 0 0 0
0 0 0 0 0 0 0 0 0 0 0 0 0 0 0 0 0 0 0 0 0 0 0 0 0 0 0 0 0 0 0 0
0 0 0 0 0 0 0 0 0 0 0 0 0 0 0 0 0 0 0 0 0 0 0 0 0 0 0 0 0 0 0 0
0 0 0 0 0 0 0 0 0 0 0 0 0 0 0 0 0 0 0 0 0 0 0 0 0 0 0 0 0 0 0 0
0 0 0 0 0 0 0 0 0 0 0 0 0 0 0 0 0 0 0 0 0 0 0 0 0 2 1 0 0 0 0 0
0 0 0 0 0 0 0 0 0 0 0 0 0 0 0 0 0 0 0 0 0 0 0 0 0 0 2 2 2 3 3 2
CIN
-205 -201 -223 -240 -216 -208 -185 -153 -137 -142 -141 -155 -159 -124 -140 -163 -167 -181 -243 -284 -318 -371 -340 -292 -255 -276 -265 -215 -78 -66 -4 -29
-226 -220 -232 -260 -233 -274 -238 -215 -171 -168 -210 -263 -294 -274 -304 -299 -0 -0 -0 -0 -0 -0 -0 -0 -0 -0 -0 -0 -0 -0 -113 -96
-188 -194 -252 -219 -295 -251 -267 -219 -167 -173 -205 -266 -287 -249 -324 -0 -0 -0 -0 -0 -0 -0 -0 -0 -0 -0 -0 -0 -0 -0 -0 -0
-162 -173 -177 -213 -18 -211 -209 -183 -113 -91 -96 -138 -159 -163 -244 -193 -0 -0 -0 -0 -0 -0 -0 -0 -0 -0 -0 -0 -0 -0 -0 -0
-136 -134 -161 -193 -214 -168 -179 -172 -130 -96 -84 -88 -125 -134 -142 -180 -0 -0 -0 -0 -0 -0 -0 -0 -0 -0 -0 -0 -0 -0 -0 -0
-93 -119 -134 -110 -99 -105 -123 -127 -123 -80 -70 -79 -73 -75 -125 -0 -0 -0 -0 -0 -0 -0 -0 -0 -0 -0 -0 -0 -0 -0 -0 -0
-64 -98 -117 -108 -131 -100 -84 -82 -101 -70 -58 -49 -61 -60 -23 -0 -0 -0 -0 -0 -0 -0 -0 -0 -0 -0 -0 -0 -0 -0 -0 -0
-77 -105 -171 -151 -219 -220 -165 -154 -91 -78 -57 -33 -36 -54 -50 -0 -0 -0 -0 -0 -0 -0 -0 -0 -0 -0 -0 -0 -0 -0 -0 -0
-78 -0 -0 -13 -0 -0 -0 -0 -0 -0 -5 -6 -88 -6 -0 -0 -0 -0 -0 -0 -0 -0 -0 -0 -0 -0 -0 -0 -0 -0 -0 -0
-112 -0 -0 -0 -0 -0 -0 -0 -0 -0 -0 -0 -0 -0 -0 -0 -0 -0 -61 -78 -0 -0 -0 -0 -0 -0 -0 -0 -0 -0 -0 -0
-0 -0 -0 -0 -0 -0 -0 -0 -0 -0 -0 -0 -0 -0 -0 -0 -0 -0 -0 -0 -0 -0 -0 -0 -0 -0 -0 -0 -0 -0 -0 -0
-0 -0 -0 -0 -0 -0 -0 -0 -0 -0 -0 -0 -0 -0 -0 -0 -0 -0 -0 -0 -0 -0 -0 -0 -0 -0 -0 -0 -0 -0 -0 -0
-0 -0 -0 -0 -0 -0 -0 -0 -0 -0 -0 -0 -0 -0 -0 -0 -0 -0 -0 -0 -0 -0 -0 -0 -0 -0 -0 -0 -0 -0 -0 -0
-0 -0 -0 -0 -0 -0 -0 -0 -0 -0 -0 -0 -0 -0 -0 -0 -0 -0 -0 -0 -0 -0 -0 -0 -0 -0 -0 -0 -0 -0 -0 -0
-0 -0 -0 -0 -0 -0 -0 -0 -0 -0 -0 -0 -0 -0 -0 -0 -0 -0 -0 -0 -0 -0 -0 -0 -0 -0 -0 -0 -0 -0 -0 -0
-0 -0 -0 -0 -0 -0 -0 -0 -0 -0 -0 -0 -0 -0 -0 -0 -0 -0 -0 -0 -0 -0 -0 -0 -0 -0 -0 -0 -0 -0 -0 -0
-0 -0 -0 -0 -0 -0 -0 -0 -0 -0 -0 -0 -0 -0 -0 -0 -0 -0 -0 -0 -0 -0 -0 -0 -0 -0 -0 -0 -0 -0 -0 -0
-0 -0 -0 -0 -0 -0 -0 -0 -0 -0 -0 -0 -0 -0 -0 -0 -0 -0 -0 -0 -0 -0 -0 -0 -0 -0 -0 -0 -0 -0 -0 -0
-0 -0 -0 -0 -0 -0 -0 -0 -0 -0 -0 -0 -0 -0 -0 -0 -0 -0 -0 -0 -0 -0 -0 -0 -0 -0 -0 -0 -0 -0 -0 -0
-0 -0 -0 -0 -0 -0 -0 -0 -0 -0 -0 -0 -0 -0 -0 -0 -0 -0 -0 -0 -0 -0 -0 -0 -0 -0 -0 -0 -0 -0 -0 -0
Wind_Speed
17 16 16 17 16 16 16 15 16 17 16 17 17 17 18 18 18 18 19 20 21 21 21 22 21 20 20 20 19 19 19 20
17 17 17 18 16 16 16 16 15 15 16 16 16 16 17 17 17 18 19 20 21 21 22 22 21 21 20 20 20 19 20 19
16 16 16 16 16 16 15 15 15 15 15 15 15 15 16 17 19 20 21 22 22 22 22 22 21 20 20 21 20 19 19 20
14 14 14 15 15 15 16 16 15 15 16 16 15 15 16 17 17 19 21 23 24 24 24 24 22 21 21 21 21 20 20 21
12 12 12 13 15 17 17 17 17 16 16 16 16 16 15 16 17 19 20 21 21 21 22 23 24 23 23 23 23 22 21 21
10 10 12 13 15 15 16 16 16 16 16 16 17 17 17 18 19 20 20 20 21 21 22 23 23 22 22 22 22 22 21 21
9 10 11 13 14 16 16 15 16 17 18 18 19 20 21 21 22 22 22 22 22 22 22 22 22 21 21 21 22 22 22 21
9 9 12 14 15 17 19 19 19 20 21 21 20 21 23 24 25 25 24 23 22 22 22 22 22 21 21 21 22 23 23 23
8 9 12 14 15 18 19 21 21 22 23 22 21 21 23 25 25 26 26 25 23 22 22 22 22 21 22 22 22 23 23 23
6 9 11 13 15 18 21 23 23 23 24 24 23 23 23 24 24 24 25 24 24 24 23 24 24 23 23 23 24 24 23 24
6 9 12 13 16 20 23 24 24 25 25 25 24 24 23 23 24 24 23 23 22 21 22 22 23 23 24 24 24 24 24 24
8 10 13 15 18 22 24 25 26 26 27 27 28 28 27 26 26 25 25 25 25 24 24 23 23 23 24 25 25 25 24 25
8 11 14 19 23 26 28 29 30 30 31 31 30 29 28 29 29 30 30 30 29 29 28 27 26 25 27 29 29 29 28 26
13 18 21 24 25 26 27 30 29 31 31 34 35 35 36 34 34 35 35 36 35 34 32 34 34 28 31 32 37 32 29 27
19 21 23 25 27 28 29 28 30 32 39 42 43 42 41 41 41 40 40 38 38 36 35 36 39 35 32 33 38 40 33 25
19 21 24 27 28 30 33 34 38 38 41 43 45 44 44 44 43 42 41 40 40 40 38 38 38 42 37 35 36 37 38 38
21 23 27 28 30 33 35 37 38 41 44 47 48 47 44 44 43 44 43 41 41 41 42 40 38 39 38 36 35 35 35 40
23 26 29 32 35 36 37 40 43 47 50 52 51 49 47 44 43 41 40 39 38 35 33 31 29 28 28 31 33 33 35 36
28 31 33 36 37 37 40 43 46 50 51 50 50 49 47 43 39 37 35 33 31 28 26 26 27 27 26 26 28 31 30 34
32 34 36 38 40 40 40 41 44 46 47 48 48 47 41 37 36 34 32 30 28 26 26 26 26 27 27 27 28 27 29 30
Wind_Direction
100 94 79 65 59 51 53 55 46 44 41 37 36 37 34 30 31 32 29 24 14 5 3 2 4 1 357 350 343 332 328 319
106 94 80 71 77 68 65 62 58 48 40 32 26 24 22 20 17 13 12 7 2 360 356 352 349 348 352 352 347 340 334 332
110 90 79 69 66 61 57 51 45 37 31 27 23 21 17 11 4 360 356 353 351 349 346 345 345 345 342 340 343 344 338 333
111 91 80 66 55 50 41 33 30 26 23 20 18 14 10 5 4 359 353 349 344 340 337 336 337 335 333 332 333 334 333 331
101 89 70 53 38 27 22 17 17 14 14 13 11 8 5 0 355 352 349 348 347 344 340 335 329 326 325 323 323 323 328 330
87 69 55 46 33 31 27 23 18 14 11 6 1 358 355 350 346 343 342 343 341 341 338 334 330 329 326 324 324 325 327 329
79 72 59 46 36 28 25 20 14 7 2 357 353 348 344 342 339 338 336 336 335 334 333 331 330 329 327 323 322 323 324 326
77 62 44 33 29 24 18 13 7 1 357 353 350 346 342 339 336 334 334 334 333 331 330 329 327 325 323 321 319 318 318 319
71 45 27 21 21 16 14 10 5 1 358 356 353 348 343 339 337 334 332 331 330 330 328 327 325 323 319 318 317 316 315 316
47 32 25 22 19 14 7 4 1 358 356 354 353 349 345 341 339 337 335 332 329 326 323 321 319 317 316 315 314 314 313 312
44 22 10 11 6 0 357 356 356 353 350 350 348 346 345 340 337 335 333 331 328 325 322 320 318 315 312 312 312 311 310 310
8 3 358 357 354 351 350 351 353 351 347 345 342 339 337 334 331 328 326 322 319 316 313 314 311 311 309 307 307 307 306 304
10 359 353 348 346 345 345 346 345 345 345 343 343 341 338 333 328 323 320 314 309 308 306 304 304 305 306 304 302 301 299 298
358 348 344 343 343 343 343 340 342 342 344 343 342 338 334 331 326 322 318 314 309 303 299 298 299 296 297 300 299 299 298 295
348 345 346 346 346 347 346 347 344 341 336 334 332 332 331 328 325 321 318 315 311 306 300 294 292 292 287 289 295 292 296 296
352 354 350 349 349 347 345 342 337 335 332 331 331 331 328 326 324 322 319 316 311 308 304 298 293 289 290 285 287 291 289 290
352 350 348 348 347 343 340 337 336 333 332 330 329 328 329 327 325 322 320 317 313 309 305 300 295 290 285 285 284 287 288 285
349 345 343 342 340 338 337 335 333 331 329 328 328 328 327 327 327 327 327 325 323 321 319 316 310 302 298 293 285 282 286 286
341 339 337 338 336 335 334 333 332 330 330 330 328 328 328 328 330 331 332 335 336 335 332 329 326 318 312 304 299 293 292 288
339 337 335 336 335 333 333 333 333 332 331 330 329 328 329 331 332 332 332 334 335 334 330 327 324 320 315 311 305 299 298 293